CAPE
0 0 0 0 0 0 0 0 0 0 0 0 0 0 0 0 0 0 0 0 0 0 0 0 0 0 0 0 0 0 0 0 0 0 0 0 0 0 0 0 0 0 0 0 0 0 0
0 0 0 0 0 0 0 0 0 0 0 0 0 0 0 0 0 0 0 0 0 0 0 0 0 0 0 0 0 0 0 0 0 0 0 0 0 0 0 0 0 0 0 0 0 0 0
0 0 0 0 0 0 0 0 0 0 0 0 0 0 0 0 0 0 0 0 0 0 0 0 0 0 0 0 0 0 0 0 0 0 0 0 0 0 0 0 0 0 0 0 0 0 0
0 0 0 0 0 0 0 0 0 0 0 0 0 0 0 0 0 0 0 0 0 0 0 0 0 0 0 0 0 0 0 0 0 0 0 0 0 0 0 0 0 0 0 0 0 0 0
0 0 0 0 0 0 0 0 0 0 0 0 0 0 0 0 0 0 0 0 0 0 0 0 0 0 0 0 0 0 0 0 0 0 0 0 0 0 0 0 0 0 0 0 0 0 0
0 0 0 0 0 0 0 0 0 0 0 0 0 0 0 0 0 0 0 0 0 0 0 0 0 0 0 0 0 0 0 0 0 0 0 0 0 0 0 0 0 0 0 0 0 0 0
0 0 0 0 0 0 0 0 0 0 0 0 0 0 0 0 0 0 0 0 0 0 0 0 0 0 0 0 0 0 0 0 0 0 0 0 0 0 0 0 0 0 0 0 0 0 0
0 0 0 0 0 0 0 0 1 0 1 0 0 0 0 0 0 0 0 0 0 0 0 0 0 0 0 0 0 0 0 0 0 0 0 0 0 0 0 0 0 0 0 0 0 0 0
0 0 0 0 0 0 0 0 1 0 1 0 0 0 0 0 0 0 0 0 0 0 0 0 0 0 0 0 0 0 0 0 0 0 0 0 0 0 0 0 0 0 0 0 0 0 0
0 0 0 0 0 1 0 1 0 0 0 0 0 0 0 0 0 0 0 0 0 0 0 0 0 0 0 0 0 0 0 0 0 0 0 0 0 0 0 0 0 0 0 0 0 0 0
2 2 0 1 1 1 1 0 0 0 0 0 1 0 0 0 0 0 0 0 0 0 0 0 0 0 0 0 0 0 0 0 0 0 0 0 0 0 0 0 0 0 0 0 0 0 0
1 1 0 1 1 0 1 0 0 2 0 0 0 0 0 0 0 0 0 0 0 0 0 0 0 0 0 0 0 0 0 0 0 0 0 0 0 0 0 0 0 0 0 0 0 0 0
1 1 1 0 0 0 1 1 0 0 0 0 0 0 0 0 0 0 0 0 0 0 0 0 0 0 0 0 0 0 0 0 0 0 0 0 0 0 0 0 0 0 0 0 0 0 0
1 1 0 0 0 0 0 0 0 0 1 0 0 0 0 0 0 0 0 0 0 0 0 0 0 0 0 0 0 0 0 0 0 0 0 0 0 0 0 0 0 0 0 0 0 0 0
0 0 0 0 0 0 0 0 1 0 0 0 0 0 0 0 0 0 0 0 0 0 0 0 0 0 0 0 0 0 0 0 0 0 0 0 0 0 0 0 0 0 0 0 0 0 0
0 0 0 0 0 0 0 0 1 0 0 0 0 0 0 0 0 0 0 0 0 0 0 0 0 0 0 0 0 0 0 0 0 0 0 0 0 0 0 0 0 0 0 0 0 0 0
0 0 0 0 0 0 0 1 0 0 0 0 0 0 0 0 0 0 0 0 0 0 0 0 0 0 0 0 0 0 0 0 0 0 0 0 0 0 0 0 0 0 0 0 0 0 0
0 0 0 1 1 1 0 1 0 1 0 0 0 0 0 0 0 0 0 0 0 0 0 0 0 0 0 0 0 0 0 0 0 0 0 0 0 0 0 0 0 0 0 0 0 0 0
0 0 0 0 0 1 1 3 0 0 0 0 0 0 0 0 0 0 0 0 0 0 0 0 0 0 0 0 0 0 0 0 0 0 0 0 0 0 0 0 0 0 0 0 0 0 0
0 0 0 0 0 0 1 3 0 0 0 0 0 0 0 0 0 0 0 0 0 0 0 0 0 0 0 0 0 0 0 0 0 0 0 0 0 0 0 0 0 0 0 0 0 0 0
0 0 0 0 0 0 0 0 0 0 0 0 0 0 0 0 0 0 0 0 0 0 0 0 0 0 0 0 0 0 0 0 0 0 0 0 0 0 0 0 0 0 0 0 0 0 0
0 0 0 0 0 0 0 0 0 0 0 0 0 0 0 0 0 0 0 0 0 0 0 0 0 0 0 0 0 0 0 0 0 0 0 0 0 0 0 0 0 0 0 0 0 0 0
0 0 0 0 0 0 0 0 1 0 0 0 0 0 0 0 0 0 0 0 0 0 0 0 0 0 0 0 0 0 0 0 0 0 0 0 0 0 0 0 0 0 0 0 0 0 0
0 0 0 0 0 0 0 0 0 0 0 0 0 0 0 0 0 0 0 0 0 0 0 0 0 0 0 0 0 0 0 0 0 0 0 0 0 0 0 0 0 0 0 0 0 0 0
0 0 0 0 0 0 0 0 0 0 0 0 0 0 0 0 0 0 0 0 0 0 0 0 0 0 0 0 0 0 0 0 0 0 0 0 0 0 0 0 0 0 0 0 0 0 0
0 0 0 0 0 0 0 0 0 0 0 0 0 0 0 1 0 0 0 0 0 0 0 0 0 0 0 0 0 0 0 0 0 0 0 0 0 0 0 0 0 0 0 0 0 0 0
0 0 0 0 0 0 0 0 0 0 0 0 0 0 2 1 0 3 1 0 0 0 0 0 0 0 0 0 0 0 0 0 0 0 0 0 0 0 0 0 0 0 0 0 0 0 0
0 0 0 0 0 0 0 0 0 0 0 1 1 0 1 0 1 2 7 3 1 1 0 0 0 0 0 0 0 0 0 0 0 0 0 0 0 0 0 0 0 0 0 0 0 0 0
0 0 0 0 0 0 0 0 0 0 0 2 6 0 0 6 1 0 0 0 3 6 2 0 0 0 0 0 0 0 0 0 0 0 0 0 0 0 0 0 0 0 0 0 0 0 0
CIN
-0 -0 -0 -0 -0 -0 -0 -0 -0 -0 -0 -0 -0 -0 -0 -0 -0 -0 -0 -0 -0 -0 -0 -0 -0 -0 -0 -0 -0 -0 -0 -0 -0 -0 -0 -0 -0 -0 -0 -0 -0 -0 -0 -0 -0 -0 -0
-0 -0 -0 -0 -0 -0 -0 -0 -0 -0 -0 -0 -0 -0 -0 -0 -0 -0 -0 -0 -0 -0 -0 -0 -0 -0 -0 -0 -0 -0 -0 -0 -0 -0 -0 -0 -0 -0 -0 -0 -0 -0 -0 -0 -0 -0 -0
-0 -0 -0 -0 -0 -0 -0 -0 -0 -0 -0 -0 -0 -0 -0 -0 -0 -0 -0 -0 -0 -0 -0 -0 -0 -0 -0 -0 -0 -0 -0 -0 -0 -0 -0 -0 -0 -0 -0 -0 -0 -0 -0 -0 -0 -0 -0
-0 -0 -0 -0 -0 -0 -0 -0 -0 -0 -0 -0 -0 -0 -0 -0 -0 -0 -0 -0 -0 -0 -0 -0 -0 -0 -0 -0 -0 -0 -0 -0 -0 -0 -0 -0 -0 -0 -0 -0 -0 -0 -0 -0 -0 -0 -0
-0 -0 -0 -0 -0 -0 -0 -0 -0 -0 -0 -0 -0 -0 -0 -0 -0 -0 -0 -0 -0 -0 -0 -0 -0 -0 -0 -0 -0 -0 -0 -0 -0 -0 -0 -0 -0 -0 -0 -0 -0 -0 -0 -0 -0 -0 -0
-0 -0 -0 -0 -0 -0 -0 -0 -0 -0 -0 -0 -0 -0 -0 -0 -0 -0 -0 -0 -0 -0 -0 -0 -0 -0 -0 -0 -0 -0 -0 -0 -0 -0 -0 -0 -0 -0 -0 -0 -0 -0 -0 -0 -0 -0 -0
-0 -0 -0 -0 -0 -0 -0 -0 -0 -0 -0 -0 -0 -0 -0 -0 -0 -0 -0 -0 -0 -0 -0 -0 -0 -0 -0 -0 -0 -0 -0 -0 -0 -0 -0 -0 -0 -0 -0 -0 -0 -0 -0 -0 -0 -0 -0
-0 -0 -0 -0 -0 -0 -0 -0 -0 -0 -0 -0 -0 -0 -0 -0 -0 -0 -0 -0 -0 -0 -0 -0 -0 -0 -0 -0 -0 -0 -0 -0 -0 -0 -0 -0 -0 -0 -0 -0 -0 -0 -0 -0 -0 -0 -0
-0 -0 -2 -0 -0 -0 -6 -12 -0 -0 -0 -0 -0 -0 -0 -0 -0 -0 -0 -0 -0 -0 -0 -0 -0 -0 -0 -0 -0 -0 -0 -0 -0 -0 -0 -0 -0 -0 -0 -0 -0 -0 -0 -0 -0 -0 -0
-7 -5 -3 -2 -6 -6 -3 -4 -0 -0 -0 -0 -0 -0 -0 -0 -0 -0 -0 -0 -0 -0 -0 -0 -0 -0 -0 -0 -0 -0 -0 -0 -0 -0 -0 -0 -0 -0 -0 -0 -0 -0 -0 -0 -0 -0 -0
-7 -4 -1 -2 -8 -0 -0 -0 -0 -0 -0 -0 -0 -0 -0 -0 -0 -0 -0 -0 -0 -0 -0 -0 -0 -0 -0 -0 -0 -0 -0 -0 -0 -0 -0 -0 -0 -0 -0 -0 -0 -0 -0 -0 -0 -0 -0
-8 -8 -0 -3 -4 -0 -0 -0 -0 -1 -1 -0 -0 -0 -0 -0 -0 -0 -0 -0 -0 -0 -0 -0 -0 -0 -0 -0 -0 -0 -0 -0 -0 -0 -0 -0 -0 -0 -0 -0 -0 -0 -0 -0 -0 -0 -0
-1 -0 -0 -0 -0 -0 -0 -0 -0 -0 -1 -0 -0 -0 -0 -0 -0 -0 -0 -0 -0 -0 -0 -0 -0 -0 -0 -0 -0 -0 -0 -0 -0 -0 -0 -0 -0 -0 -0 -0 -0 -0 -0 -0 -0 -0 -0
-1 -0 -0 -0 -0 -0 -0 -0 -0 -0 -0 -0 -0 -0 -0 -0 -0 -0 -0 -0 -0 -0 -0 -0 -0 -0 -0 -0 -0 -0 -0 -0 -0 -0 -0 -0 -0 -0 -0 -0 -0 -0 -0 -0 -0 -0 -0
-0 -0 -0 -0 -0 -0 -0 -0 -0 -0 -0 -0 -0 -0 -0 -0 -0 -0 -0 -0 -0 -0 -0 -0 -0 -0 -0 -0 -0 -0 -0 -0 -0 -0 -0 -0 -0 -0 -0 -0 -0 -0 -0 -0 -0 -0 -0
-0 -0 -0 -0 -0 -0 -0 -0 -1 -0 -0 -0 -0 -0 -0 -0 -0 -0 -0 -0 -0 -0 -0 -0 -0 -0 -0 -0 -0 -0 -0 -0 -0 -0 -0 -0 -0 -0 -0 -0 -0 -0 -0 -0 -0 -0 -0
-0 -0 -0 -0 -0 -0 -0 -1 -1 -0 -0 -0 -0 -0 -0 -0 -0 -0 -0 -0 -0 -0 -0 -0 -0 -0 -0 -0 -0 -0 -0 -0 -0 -0 -0 -0 -0 -0 -0 -0 -0 -0 -0 -0 -0 -0 -0
-0 -0 -0 -0 -0 -0 -0 -1 -0 -0 -0 -0 -0 -0 -0 -0 -0 -0 -0 -0 -0 -0 -0 -0 -0 -0 -0 -0 -0 -0 -0 -0 -0 -0 -0 -0 -0 -0 -0 -0 -0 -0 -0 -0 -0 -0 -0
-0 -0 -0 -0 -2 -1 -1 -3 -0 -0 -0 -0 -0 -0 -0 -0 -0 -0 -0 -0 -0 -0 -0 -0 -0 -0 -0 -0 -0 -0 -0 -0 -0 -0 -0 -0 -0 -0 -0 -0 -0 -0 -0 -0 -0 -0 -0
-0 -0 -0 -0 -0 -0 -2 -5 -0 -0 -0 -0 -0 -0 -0 -0 -0 -0 -0 -0 -0 -0 -0 -0 -0 -0 -0 -0 -0 -0 -0 -0 -0 -0 -0 -0 -0 -0 -0 -0 -0 -0 -0 -0 -0 -0 -0
-0 -0 -0 -0 -0 -0 -0 -0 -0 -0 -0 -0 -0 -0 -0 -0 -0 -0 -0 -0 -0 -0 -0 -0 -0 -0 -0 -0 -0 -0 -0 -0 -0 -0 -0 -0 -0 -0 -0 -0 -0 -0 -0 -0 -0 -0 -0
-0 -0 -0 -0 -0 -0 -0 -0 -0 -0 -0 -0 -0 -0 -0 -0 -0 -0 -0 -0 -0 -0 -0 -0 -0 -0 -0 -0 -0 -0 -0 -0 -0 -0 -0 -0 -0 -0 -0 -0 -0 -0 -0 -0 -0 -0 -0
-0 -0 -0 -0 -0 -0 -0 -0 -0 -0 -0 -0 -0 -0 -0 -0 -0 -0 -0 -0 -0 -0 -0 -0 -0 -0 -0 -0 -0 -0 -0 -0 -0 -0 -0 -0 -0 -0 -0 -0 -0 -0 -0 -0 -0 -0 -0
-0 -0 -0 -0 -0 -0 -0 -0 -0 -1 -0 -0 -0 -0 -0 -0 -0 -0 -0 -0 -0 -0 -0 -0 -0 -0 -0 -0 -0 -0 -0 -0 -0 -0 -0 -0 -0 -0 -0 -0 -0 -0 -0 -0 -0 -0 -0
-0 -0 -0 -0 -0 -0 -0 -0 -0 -3 -0 -0 -0 -0 -0 -0 -0 -0 -0 -0 -0 -0 -0 -0 -0 -0 -0 -0 -0 -0 -0 -0 -0 -0 -0 -0 -0 -0 -0 -0 -0 -0 -0 -0 -0 -0 -0
-0 -0 -0 -0 -0 -0 -0 -0 -0 -0 -4 -0 -0 -0 -0 -4 -0 -0 -0 -0 -0 -0 -0 -0 -0 -0 -0 -0 -0 -0 -0 -0 -0 -0 -0 -0 -0 -0 -0 -0 -0 -0 -0 -0 -0 -0 -0
-0 -0 -0 -0 -0 -0 -0 -0 -0 -0 -1 -0 -3 -0 -11 -0 -3 -6 -3 -0 -0 -0 -0 -0 -0 -0 -0 -0 -0 -0 -0 -0 -0 -0 -0 -0 -0 -0 -0 -0 -0 -0 -0 -0 -0 -0 -0
-0 -0 -0 -0 -0 -0 -0 -0 -0 -0 -0 -4 -1 -0 -5 -0 -5 -13 -10 -1 -5 -5 -6 -0 -0 -0 -0 -0 -0 -0 -0 -0 -0 -0 -0 -0 -10 -0 -0 -0 -0 -0 -0 -0 -0 -0 -0
-0 -0 -0 -0 -0 -0 -0 -0 -0 -0 -0 -0 -4 -1 -0 -3 -1 -0 -0 -0 -19 -19 -26 -0 -0 -0 -0 -0 -0 -0 -0 -0 -0 -0 -0 -0 -0 -0 -0 -0 -0 -0 -0 -0 -0 -0 -0
Wind_Speed
13 15 16 16 8 4 4 2 1 4 6 10 14 17 16 12 9 10 2 14 19 22 20 20 19 19 18 21 18 17 19 24 22 22 26 22 24 19 19 17 18 19 17 19 19 18 18
11 12 14 15 10 4 2 2 5 8 10 12 15 17 17 12 8 7 1 13 18 20 20 20 19 18 18 19 16 19 22 22 25 23 24 24 21 21 20 17 17 15 16 17 17 17 14
8 8 10 10 10 6 2 3 6 6 10 11 15 16 16 15 11 10 4 15 17 19 20 19 20 22 24 21 17 19 22 21 22 21 20 20 20 19 17 17 17 17 15 14 13 13 14
7 6 6 7 6 3 1 4 6 11 12 13 15 18 18 17 13 9 5 16 19 19 20 19 18 20 22 18 17 20 21 20 20 20 19 19 20 22 19 17 17 15 14 13 12 12 13
8 8 8 6 4 3 3 5 7 10 13 14 14 16 19 17 11 12 11 18 18 19 19 18 19 20 21 17 19 17 19 19 18 19 20 18 18 20 19 17 16 17 16 13 11 12 13
11 11 11 9 8 7 6 8 12 15 16 16 15 16 17 16 10 14 16 19 21 20 19 20 21 20 21 18 16 18 19 19 19 18 18 20 20 21 21 22 23 19 16 14 11 12 11
13 14 14 14 12 11 9 9 12 16 17 18 16 15 16 13 4 12 18 19 21 23 27 24 22 22 20 17 17 20 20 19 20 22 22 21 22 25 21 19 18 16 15 13 11 12 13
17 17 18 19 18 16 13 11 12 15 16 17 17 18 18 16 15 27 27 23 20 18 24 21 20 20 19 19 20 23 22 22 23 23 21 21 23 21 19 19 20 19 18 16 13 14 14
20 21 22 22 23 22 20 16 15 15 17 18 18 19 19 15 17 26 33 23 16 17 19 21 20 21 21 20 22 24 24 22 24 23 24 22 20 20 21 22 24 23 20 19 17 16 15
24 25 26 26 26 26 25 23 19 18 15 14 16 17 18 8 19 20 27 19 16 16 18 20 21 20 19 19 22 22 23 21 22 22 22 21 21 21 23 23 24 27 19 17 15 18 22
27 27 28 28 28 29 28 27 25 23 20 19 18 16 14 27 18 24 17 17 17 16 19 18 19 17 20 23 20 26 22 22 23 23 23 23 23 22 25 24 22 22 20 18 18 17 19
28 28 29 30 29 30 29 29 28 27 25 24 22 20 9 20 21 20 19 18 17 20 20 19 19 21 21 23 22 22 24 24 20 21 24 22 19 20 23 23 22 22 21 21 20 20 26
28 28 30 30 30 30 29 29 28 28 28 29 27 26 22 21 22 21 20 19 21 22 19 21 21 22 21 24 22 26 25 27 27 27 29 25 21 20 21 25 23 29 29 29 28 30 27
28 30 30 30 29 29 28 28 27 28 29 30 30 23 21 22 21 21 21 22 22 21 21 20 21 21 22 26 22 24 23 24 26 26 26 28 26 23 24 24 27 26 27 29 32 31 25
29 30 30 28 27 26 27 26 27 28 29 30 28 22 20 22 21 20 22 24 21 20 20 22 21 23 22 24 24 25 24 22 23 26 29 28 24 21 22 22 24 25 26 22 24 22 26
29 29 28 26 26 26 25 25 26 28 28 29 25 22 23 26 21 20 22 21 20 19 20 20 24 22 24 25 26 28 24 20 21 23 24 23 25 21 21 22 21 21 18 26 24 31 31
27 26 26 26 25 25 25 25 26 27 28 26 22 22 22 27 20 23 23 22 21 19 20 22 22 23 23 25 24 24 22 21 21 23 24 23 21 24 24 23 23 23 21 19 19 20 27
26 24 23 23 23 23 24 24 25 26 28 23 21 23 24 24 22 22 23 21 20 20 20 20 21 21 21 23 24 23 23 21 21 23 25 23 23 26 25 21 19 19 20 19 25 25 19
23 22 20 19 20 21 23 23 24 24 25 22 23 22 22 21 23 24 22 21 20 20 20 21 22 20 19 22 25 21 21 19 20 20 25 22 23 31 30 23 22 22 20 17 20 20 18
20 20 19 19 19 19 20 21 22 22 23 20 21 23 23 22 21 23 24 23 23 20 20 20 20 19 21 23 20 23 23 22 22 22 22 20 21 21 25 25 24 23 20 18 18 22 20
18 16 16 16 17 18 18 20 20 21 22 19 22 21 21 25 25 23 23 23 24 24 20 20 21 20 21 25 26 23 22 24 23 23 20 20 25 22 19 21 20 19 21 19 18 17 20
16 16 16 16 17 17 17 18 18 19 20 19 21 21 20 22 22 23 24 24 24 24 22 23 23 23 22 23 22 28 26 25 24 23 21 22 26 27 29 23 21 26 21 20 19 18 19
17 16 16 15 15 16 16 16 16 17 19 18 18 18 20 21 23 25 24 24 25 25 23 20 23 26 27 25 21 21 22 21 21 22 23 23 23 29 31 27 33 30 27 26 26 22 21
17 17 16 15 15 14 14 15 15 15 15 17 17 19 23 27 25 25 25 25 27 26 27 24 23 27 24 23 25 25 23 22 20 18 15 20 22 24 31 34 36 29 30 28 25 26 23
19 18 17 17 16 16 16 15 14 14 13 16 16 19 23 29 26 26 26 28 26 27 28 27 25 22 21 25 29 30 29 25 22 20 20 14 18 26 30 34 34 31 28 30 31 34 30
20 19 18 17 17 17 16 17 16 15 13 15 17 18 21 29 30 24 27 26 30 34 31 26 23 21 21 24 26 31 32 28 26 25 24 22 17 23 31 37 41 35 29 26 28 41 26
22 21 19 19 17 17 17 17 17 17 15 16 19 16 23 30 29 25 31 30 29 27 30 30 25 23 21 24 28 29 29 24 28 26 27 29 26 28 32 37 36 29 25 24 40 41 31
25 24 22 20 19 18 18 18 18 18 18 17 23 18 23 30 32 27 26 30 27 26 33 24 27 23 22 25 27 28 27 25 26 26 32 32 30 33 32 37 47 20 25 32 33 31 32
25 25 23 22 20 19 19 20 19 19 18 17 25 20 20 27 31 26 24 22 23 24 25 21 22 24 24 27 24 27 28 30 33 40 27 34 27 35 31 37 32 25 32 31 32 33 32
Wind_Direction
139 128 119 115 142 163 152 128 345 338 333 328 327 328 326 311 310 310 306 79 65 52 57 63 67 67 66 63 74 61 47 34 43 48 40 57 55 68 69 77 70 67 68 47 47 57 57
151 141 126 116 131 159 217 293 319 323 326 328 327 327 328 318 313 321 52 88 77 72 74 74 76 75 74 69 68 52 39 41 31 44 46 50 58 58 67 72 68 73 66 57 50 44 58
179 171 150 137 131 140 180 297 313 322 324 327 327 327 327 323 311 317 78 88 84 88 87 93 93 85 53 66 69 55 46 49 50 52 57 57 58 62 70 71 70 71 71 64 56 45 29
222 222 189 166 155 170 219 297 313 319 323 326 327 328 327 325 313 317 90 87 88 92 93 101 100 85 63 76 73 56 50 54 53 52 58 58 54 54 59 66 61 67 62 47 53 47 28
245 259 261 226 224 226 259 291 306 316 320 323 326 328 328 326 319 319 88 90 92 100 97 101 89 78 61 76 60 60 53 53 55 53 52 56 57 55 54 52 51 47 33 37 39 38 26
266 274 277 265 262 264 275 292 303 312 317 319 321 326 328 326 320 322 87 92 90 97 93 87 74 63 60 60 62 55 48 52 49 53 52 45 45 42 43 40 27 26 28 29 28 35 27
274 276 280 280 276 276 277 286 297 306 310 313 315 321 326 327 340 330 85 87 71 69 60 67 66 61 51 55 64 50 45 46 43 38 36 39 37 28 36 42 40 34 27 22 23 23 13
279 279 283 287 286 285 281 283 290 297 303 305 308 314 319 317 75 345 51 54 65 76 54 68 65 54 53 54 51 43 43 35 34 31 35 36 32 32 40 38 33 29 23 22 25 25 11
288 291 291 290 293 294 290 285 286 291 297 301 304 308 311 308 69 44 32 48 81 78 56 55 55 49 47 49 42 34 35 34 28 29 28 32 34 36 31 26 19 20 22 24 19 15 9
297 300 302 301 298 299 298 294 287 288 288 291 298 302 307 298 58 50 38 54 71 69 52 46 47 49 48 43 34 36 36 37 33 28 29 30 31 29 25 21 22 15 30 24 15 15 11
295 305 304 302 304 303 302 300 295 293 289 290 294 294 297 25 51 36 49 54 67 71 43 44 46 52 41 35 31 24 35 36 28 26 26 23 22 23 18 21 23 18 19 18 21 21 19
307 311 307 306 307 305 304 304 303 303 297 298 295 295 6 39 37 39 39 50 56 36 35 36 41 35 38 35 35 28 26 31 36 28 22 22 26 27 19 19 24 21 19 21 30 31 19
310 313 307 309 311 307 308 308 307 307 311 311 307 308 22 30 23 30 34 37 26 29 32 27 27 28 32 28 31 25 25 22 21 16 12 15 21 24 27 16 22 14 15 13 15 15 16
311 305 310 310 314 312 310 310 312 316 321 324 317 8 21 24 26 25 28 21 20 23 23 27 22 23 25 23 27 24 26 21 22 21 15 11 12 18 17 16 12 16 20 16 8 8 10
311 311 311 315 318 319 312 315 318 322 327 332 344 9 18 16 18 24 17 12 20 19 19 15 19 18 19 19 19 18 22 23 20 19 13 9 10 15 14 17 16 14 14 24 14 18 13
309 310 312 315 316 311 314 317 322 326 330 338 355 1 4 4 18 21 14 15 16 18 17 18 11 15 8 10 12 10 15 22 20 19 17 12 4 16 14 14 19 16 27 12 19 8 7
310 312 312 311 312 312 314 320 327 329 331 343 356 355 4 357 17 10 7 9 11 17 16 10 8 6 8 6 9 8 12 15 18 11 10 9 11 5 4 7 7 10 13 20 21 18 6
307 311 315 316 316 317 320 324 330 331 332 351 353 347 357 3 2 7 4 9 11 10 13 11 10 8 6 5 3 7 6 9 11 7 4 7 2 356 355 5 12 15 7 9 2 2 5
306 310 316 320 322 324 323 326 330 336 342 351 347 349 3 6 353 356 2 4 5 3 4 2 1 6 7 3 358 3 4 7 6 7 360 2 360 351 356 6 11 2 1 359 359 356 346
303 307 311 315 321 326 330 332 336 342 346 354 346 340 351 2 4 357 354 356 355 3 360 2 360 3 359 355 359 355 353 360 358 353 354 357 353 348 343 343 349 343 343 342 338 336 333
299 304 310 315 319 322 328 331 337 341 345 350 344 342 349 341 347 352 352 350 347 348 357 357 352 351 350 345 346 348 351 348 350 350 355 353 342 340 337 334 332 326 330 333 325 310 323
295 300 305 309 314 318 322 327 333 338 342 342 336 338 343 342 346 346 347 344 344 344 345 343 342 343 342 337 339 335 337 341 342 348 347 347 341 340 337 339 342 339 340 337 329 321 312
290 294 298 304 310 315 319 324 330 335 338 340 343 345 341 338 339 337 338 339 338 341 342 343 340 337 332 329 328 330 331 328 327 332 335 339 343 342 339 346 340 341 348 344 345 345 339
284 289 295 300 305 310 315 319 326 332 337 338 338 339 331 323 329 331 333 333 331 332 329 334 333 329 336 339 334 330 327 325 326 326 328 337 339 341 336 340 336 345 344 342 337 336 329
279 283 288 293 299 305 310 314 318 324 327 329 334 331 324 318 321 323 324 325 329 329 326 325 326 329 339 337 334 334 336 340 344 349 345 335 338 337 338 335 330 340 344 343 342 337 335
275 278 282 287 294 300 305 308 311 314 317 322 321 329 325 318 316 320 321 324 320 323 324 326 331 335 335 331 332 327 328 332 336 337 343 342 330 332 333 330 329 336 344 346 346 333 349
271 274 279 284 289 296 301 305 309 311 312 314 318 316 316 310 313 315 314 317 322 322 321 326 328 330 332 327 323 322 322 331 328 331 335 337 331 319 322 324 327 332 338 345 332 331 336
269 272 274 279 286 292 296 301 304 307 308 306 311 311 310 307 308 311 313 314 317 317 317 323 326 324 327 321 322 323 322 326 327 325 325 325 326 324 328 324 323 337 339 327 329 331 329
267 269 273 278 284 289 293 297 301 304 307 308 304 312 308 301 306 318 317 315 310 310 311 315 315 318 319 316 319 324 318 321 318 317 324 319 316 322 319 318 325 320 320 322 322 324 324